Location: B?ogocice
(50.2413°N, 20.2361°E)
Time: 22:42:00
(UTC+00:00)

IDEFIX/ARIANE 42P - Pass Details

Date: 15 June 2024
Orbit: 782 x 800 km, 98.5° (Epoch: 17 July)

Event Time Altitude Azimuth Distance (km) Brightness Sun altitude
Rises 00:02:29 0° 18° (NNE) 3,319 7.8 -14.2°
Reaches altitude 10° 00:04:55 10° 24° (NNE) 2,382 6.5 -14.0°
Maximum altitude 00:10:01 49° 99° (E) 1,025 3.2 -13.8°
Enters shadow 00:14:13 15° 171° (S) 2,049 4.2 -13.5°
